Location: Zagreb
(45.8000°N, 16.0000°E)
Time: 22:16:18
(UTC+01:00)

Tiros 1 despin weight - Pass Details

Date: 29 January 2020
Orbit: 594 x 642 km, 48.2° (Epoch: 24 February)

Event Time Altitude Azimuth Distance (km) Brightness Sun altitude
Rises 08:23:50 0° 193° (SSW) 2,826 ? 8.4°
Reaches altitude 10° 08:26:59 10° 169° (S) 1,937 ? 8.8°
Maximum altitude 08:29:26 15° 135° (SE) 1,663 ? 9.2°
Drops below altitude 10° 08:31:54 10° 102° (ESE) 1,958 ? 9.5°
Sets 08:35:07 0° 78° (ENE) 2,878 ? 9.9°
